Regional Weather Roundup
Issued by NWS

Home | Current Version | Previous Version | Graphics & Text | Print | Product List | Glossary On
Versions: 1 2 3 4 5 6 7 8 9 10 11 12 13 14 15 16 17 18 19 20 21 22 23 24 25 26 27 28 29 30 31 32 33 34 35 36 37 38 39 40 41 42 43 44 45 46 47 48 49 50
000
ASUS43 KDMX 271907
RWRIA

WEATHER ROUNDUP FOR IOWA
NATIONAL WEATHER SERVICE DES MOINES IA
100 PM CST FRI FEB 27 2015

NOTE: "FAIR" INDICATES FEW OR NO CLOUDS BELOW 12,000 FEET WITH NO
SIGNIFICANT WEATHER AND/OR OBSTRUCTIONS TO VISIBILITY.

* - THESE STATIONS ARE NOT NWS STATIONS...THUS NOT UNDER NWS
QUALITY CONTROL.  THEY ALSO DO NOT REPORT WEATHER SUCH
AS PRECIPITATION OR FOG.

IAZ001>003-012>014-020>022-031>034-043>046-272000-
   NORTHWEST IOWA

CITY           SKY/WX    TMP DP  RH WIND       PRES   REMARKS
CARROLL *      SUNNY      9  -2  61 W5        30.58F WCI   0
CHEROKEE *     SUNNY      9   0  66 W5        30.56F WCI   0
DENISON *      SUNNY      9  -4  56 CALM      30.56F
LE MARS *      SUNNY     10   1  67 S5        30.56F WCI   2
ORANGE CITY *  SUNNY     10  -2  56 CALM      30.52F
SHELDON *      SUNNY      9  -2  61 SW8       30.51F WCI  -4
SPENCER        SUNNY      9   0  67 W8        30.54F WCI  -3
STORM LAKE *   SUNNY      7  -2  66 SW9       30.54F WCI  -7
$$

IAZ055>058-069>071-079>083-090>094-272000-
   SOUTHWEST IOWA

CITY           SKY/WX    TMP DP  RH WIND       PRES   REMARKS
ATLANTIC *     SUNNY     10   0  61 CALM      30.60F
AUDUBON *      SUNNY     10  -2  56 CALM      30.58F
CLARINDA *     SUNNY     16   1  53 CALM      30.62F
COUNCIL BLFS * SUNNY     14   3  62 VRB5      30.56F WCI   6
CRESTON *      SUNNY     10  -2  56 CALM      30.59F
HARLAN  *      SUNNY      9   0  66 CALM      30.62F
LAMONI         SUNNY      9  -1  64 W3        30.61F
RED OAK *      SUNNY     12   1  62 CALM      30.61F
SHENANDOAH *   SUNNY     16   0  48 CALM      30.61F
$$

IAZ047>049-059>061-072>074-084-272000-
   CENTRAL IOWA

CITY           SKY/WX    TMP DP  RH WIND       PRES   REMARKS
AMES           SUNNY      7  -2  66 VRB6      30.61F WCI  -3
ANKENY *       SUNNY      9  -4  56 W6        30.63F WCI  -1
CHARITON *     PTSUNNY    9  -2  61 CALM      30.62F
DES MOINES     MOSUNNY   13  -2  51 N5        30.62F WCI   5
GRINNELL*      SUNNY      7  -4  61 NW5       30.61F WCI  -2
KNOXVILLE *    SUNNY      9  -6  52 CALM      30.61F
MARSHALLTOWN   SUNNY      4  -4  69 W7        30.60F WCI  -8
PELLA *        SUNNY     10   0  61 N3        30.65F
PERRY *          N/A     10   1  67 W3        30.61F
$$

IAZ004>006-015-016-023>025-035-036-272000-
   NORTH CENTRAL IOWA

CITY           SKY/WX    TMP DP  RH WIND       PRES   REMARKS
ALGONA *       PTSUNNY    9   0  66 SW9       30.56F WCI  -5
CLARION *      SUNNY      3   0  85 SW5       30.58F WCI  -6
ESTHERVILLE    SUNNY      8  -1  66 VRB5      30.53F WCI   0
FORT DODGE *   SUNNY      9  -2  61 SW3       30.59F
MASON CITY     SUNNY      5  -4  66 W8        30.57F WCI  -8
FOREST CITY *  SUNNY      9  -4  56 CALM      30.56S
IOWA FALLS *     N/A      7  -4  61 W3        30.60F HAZE
$$

IAZ007>011-017>019-026>030-037>042-050>054-066-272000-
   NORTHEAST IOWA

CITY           SKY/WX    TMP DP  RH WIND       PRES   REMARKS
CEDAR RAPIDS   SUNNY      2  -4  76 W6        30.62F WCI  -9
CHARLES CITY * SUNNY      5  -6  61 W8        30.58F WCI  -8
CLINTON *      SUNNY      5  -2  72 W5        30.66F WCI  -4
DECORAH *      SUNNY      7  -8  51 W8        30.55F WCI  -6
DUBUQUE        SUNNY      7  -5  57 SW9       30.58F WCI  -7
MONTICELLO *   SUNNY      7  -4  61 W6        30.62F WCI  -3
OELWEIN *      SUNNY      3  -2  78 SW5       30.59F WCI  -6
WATERLOO       SUNNY      5  -4  66 SW7       30.61F WCI  -7
$$

IAZ064-065-067-068-078-272000-
   EAST CENTRAL IOWA

CITY           SKY/WX    TMP DP  RH WIND       PRES   REMARKS
DAVENPORT      SUNNY      4  -5  66 W6        30.64F WCI  -7
IOWA CITY      SUNNY      5  -4  66 W7        30.67F WCI  -7
MT. PLEASANT * SUNNY      9  -2  61 NE5       30.65F WCI   0
MUSCATINE *    SUNNY      9  -4  56 W5        30.67F WCI   0
QUAD CITIES    SUNNY     13  -4  46 CALM      30.64F
$$

IAZ062-063-075>077-085>089-095>099-272000-
   SOUTHEAST IOWA

CITY           SKY/WX    TMP DP  RH WIND       PRES   REMARKS
BURLINGTON     SUNNY     11  -3  53 N5        30.64F WCI   3
FAIRFIELD *    SUNNY      7  -6  56 NW5       30.64F WCI  -2
FORT MADISON * SUNNY      9  -2  61 N5        30.65F WCI   0
KEOKUK *       SUNNY     12  -2  52 CALM      30.65F
OSKALOOSA *      N/A      9  -2  61 CALM      30.64F
CENTERVILLE *  SUNNY     10   0  61 CALM      30.63F
OTTUMWA        SUNNY      8  -1  66 CALM      30.63F
WASHINGTON *   SUNNY      9  -2  61 W5        30.65F WCI   0
$$

ABBREVIATIONS USED IN REMARKS
   TC - TEMPERATURES IN CELSIUS
  WCI - WIND CHILL INDEX
   HX - HEAT INDEX
  VSB - VISIBILITY
$$




USA.gov is the U.S. government's official web portal to all federal, state and local government web resources and services.